Flag for Brazil Weather past 2 weeks in Salvador, Bahia, Brazil

Now
79 °F

Thunderstorms. Fog.


Feels Like: 82 °F
Forecast: 78 / 86 °F
Wind: 5 mph from Southeast

Location: Salvador Aeroporto

Current Time: Apr 26, 2015 at 3:10:31 PM

Latest Report: Apr 26, 2015 at 2:00 PM


Visibility: 2 mi

Pressure: 29.89 "Hg

Humidity: 84%

Dew point: 73 °F

Location of SalvadorLocation

Historic Weather in Salvador — Graph

°F

Salvador temperature yesterday

Maximum temperature yesterday: 86 °F (at 1:00 PM)
Minimum temperature yesterday: 75 °F (at 6:00 AM)
Average temperature yesterday: 81 °F

Past Weeks' High & Low Weather Summary

 TemperatureHumidityPressure
High88 °F (Apr 21, 10:00 AM)100% (Apr 15, 3:00 AM)30.01 "Hg (Apr 15, 3:00 AM)
Low75 °F (Apr 16, 4:00 AM)55% (Apr 11, 2:00 PM)29.83 "Hg (Apr 19, 3:00 PM)
Average82 °F73%29.93 "Hg
* Reported Apr 11 1:00 PM — Apr 26 1:00 PM, Salvador, Weather by CustomWeather, © 2015

Note: Actual official high and low records may vary slightly from our data, if they occured in-between our weather recording intervals... More about our weather records

Advertising

Salvador weather history for previous 24 hours

 ConditionsComfort  
Time TempWeatherWind HumidityBarometerVisibility
1:00 PM
Sun, Apr 26
82 °FThunderstorms. Partly sunny.9 mph74%29.92 "Hg3 mi
12:45 PM82 °FThunderstorms. Partly sunny.8 mph74%29.92 "Hg3 mi
12:00 PM81 °FLight rain. Fog.3 mph84%29.92 "Hg3 mi
11:00 AM77 °FRain. Fog.6 mph83%29.95 "Hg2 mi
10:00 AM84 °FPartly sunny.3 mph70%29.98 "Hg5 mi
9:00 AM82 °FPartly sunny.3 mph79%29.95 "Hg5 mi
8:00 AM82 °FPartly sunny.3 mph79%29.95 "Hg4 mi
7:00 AM75 °FBroken clouds.3 mph89%29.95 "Hg4 mi
6:48 AM75 °FBroken clouds.3 mph89%29.95 "Hg4 mi
6:00 AM77 °FRain. Fog.13 mph89%29.92 "Hg3 mi
5:00 AM77 °FPassing clouds.2 mph89%29.89 "HgN/A
4:00 AM77 °FPassing clouds.2 mph89%29.89 "HgN/A
3:00 AM79 °FPassing clouds.3 mph84%29.89 "HgN/A
2:00 AM81 °FPassing clouds.6 mph79%29.89 "HgN/A
1:00 AM81 °FPassing clouds.8 mph79%29.92 "HgN/A
12:00 AM81 °FPassing clouds.8 mph79%29.92 "HgN/A
11:00 PM
Sat, Apr 25
81 °FPassing clouds.9 mph79%29.92 "HgN/A
10:00 PM81 °FPassing clouds.8 mph79%29.95 "HgN/A
9:00 PM81 °FPassing clouds.8 mph79%29.92 "HgN/A
8:00 PM81 °FPassing clouds.7 mph79%29.92 "HgN/A
7:00 PM81 °FPassing clouds.6 mph79%29.92 "HgN/A
6:00 PM81 °FPassing clouds.7 mph79%29.89 "HgN/A
5:00 PM82 °FScattered clouds.9 mph74%29.89 "HgN/A
4:00 PM84 °FScattered clouds.9 mph70%29.89 "HgN/A
3:00 PM84 °FScattered clouds.8 mph70%29.89 "HgN/A
Weather by CustomWeather, © 2015

See weather overviewHow to use our weather pages